Content
SEND FEEDBACK

Daily
Averages
Monthly
Summary
United States of America

BEACON, NEW YORK


Home > North America > United States > New York
Elevation: 272 feet     Latitude: 41 31N     Longitude: 073 55W

WEATHER
 
SELECT A DAY
Number of Records: 198,402;   Date Range: 1/1/95 - 11/25/14
 
SHARE

PRINT THIS DATA

[ ← Previous Day ]
WEATHER ALMANAC - FEBRUARY 13, 2013
[ Next Day → ]
[ °C ]   °F
Weather ElementAverageHighLow
Temperature35 °F43 °F (2:53 pm)24.1 °F (5:53 am)
Dewpoint23.4 °F30.9 °F (10:53 pm)19 °F (6:53 am)
Humidity65.3 %92 % (10:53 pm)38 % (2:53 pm)
Barometer29.79 in29.92 in (2:53 am)29.70 in (5:53 pm)
Wind Speed1.4 mph9.2 mph (9:53 pm)
Weather ElementAverage
Visibility7.7 mi
Wind DirectionENE (71.9 °)

Weather ElementTotal
Precipitation0.01 in
Heating Degree Days31.5 (Base 65)
Averaged from 27 records on February 13, 2013
WEATHER CONDITIONS BREAKOUT
WIND DIRECTION BREAKOUT
WEATHER BY HOUR - FEBRUARY 13, 2013
[ °C ]   °F
Local TimeTemperatureDewpointHumidityBarometerVisibilityWind DirectionWind SpeedGust SpeedPrecipitationEventsConditions
1:53 AM34.0 °F24.1 °F67 %29.91 in10.0 miWest (260°)3.5 mphOvercast
2:53 AM33.1 °F24.1 °F70 %29.92 in10.0 miCalmOvercast
3:53 AM32.0 °F21.9 °F66 %29.91 in10.0 miCalmMostly Cloudy
4:53 AM28.0 °F24.1 °F85 %29.89 in10.0 miCalmMostly Cloudy
5:53 AM24.1 °F19.9 °F84 %29.88 in9.0 miCalmClear
6:53 AM24.1 °F19.0 °F81 %29.88 in7.0 miCalmClear
7:53 AM24.1 °F19.9 °F84 %29.89 in7.0 miCalmClear
8:53 AM30.9 °F21.9 °F69 %29.88 in7.0 miCalmClear
9:53 AM37.0 °F21.0 °F52 %29.86 in10.0 miCalmClear
10:53 AM39.0 °F21.0 °F49 %29.85 in10.0 miCalmClear
11:53 AM39.9 °F19.9 °F45 %29.84 in10.0 miNW (320°)3.5 mphClear
12:53 PM39.9 °F19.9 °F45 %29.81 in10.0 miCalmClear
1:53 PM41.0 °F19.9 °F43 %29.76 in10.0 miCalmClear
2:53 PM43.0 °F19.0 °F38 %29.75 in10.0 miCalmClear
3:53 PM42.1 °F19.0 °F40 %29.73 in10.0 miCalmClear
4:53 PM42.1 °F19.0 °F40 %29.71 in10.0 miCalmClear
5:53 PM39.9 °F21.0 °F47 %29.70 in10.0 miCalmClear
6:53 PM37.9 °F25.0 °F60 %29.70 in10.0 miNNE (30°)3.5 mphOvercast
7:53 PM36.0 °F27.0 °F70 %29.70 in10.0 miCalmOvercast
8:53 PM37.0 °F24.1 °F59 %29.70 in10.0 miCalmOvercast
9:53 PM37.0 °F24.1 °F59 %29.73 in4.0 miNW (320°)9.2 mph0.00 inSnowLight Snow
10:08 PM35.6 °F26.6 °F70 %29.73 in3.0 miNW (320°)8.1 mph0.00 inSnowLight Snow
10:20 PM33.8 °F28.4 °F81 %29.73 in1.8 miNNW (340°)5.8 mph0.00 inSnowLight Snow
10:53 PM33.1 °F30.9 °F92 %29.72 in1.0 miNorth (350°)3.5 mph0.01 inSnowLight Snow
11:24 PM33.8 °F30.2 °F87 %29.72 in2.0 miCalm0.00 inSnowLight Snow
11:41 PM33.8 °F30.2 °F87 %29.72 in3.0 miCalm0.00 inSnowLight Snow
11:53 PM33.1 °F30.9 °F92 %29.72 in4.0 miCalm0.00 inOvercast
Hourly data recorded from KPOU, located miles away from Beacon, New York







STORIES FROM OUR PARTNERS